Terminal Aerodrome Forecast
Issued by NWS

Home | Current Version | Previous Version | Text Only | Print | Product List | Glossary On
Versions: 1 2 3 4 5 6 7 8 9 10 11 12 13 14 15 16 17 18 19 20 21 22 23 24 25 26 27 28 29 30 31 32 33 34 35 36 37 38 39 40 41 42 43 44 45 46 47 48 49 50
000
FTUS41 KCTP 011600 AAF
TAFBFD
TAF AMD
KBFD 011600Z 0116/0212 09004KT 6SM BR BKN008
      TEMPO 0116/0117 5SM BR SCT015
     FM011700 12005KT P6SM SCT015 BKN035
     FM020500 VRB02KT 3/4SM BR BKN004=

USA.gov is the U.S. government's official web portal to all federal, state and local government web resources and services.